Regional Weather Roundup
Issued by NWS

Home | Current Version | Previous Version | Text Only | Print | Product List | Glossary On
Versions: 1 2 3 4 5 6 7 8 9 10 11 12 13 14 15 16 17 18 19 20 21 22 23 24 25 26 27 28 29 30 31 32 33 34 35 36 37 38 39 40 41 42 43 44 45 46 47 48 49 50
000
ASUS44 KLIX 031407
RWRLA
LOUISIANA WEATHER ROUNDUP
NATIONAL WEATHER SERVICE NEW ORLEANS LA
900 AM CDT THU SEP 03 2015

NOTE: "FAIR" INDICATES FEW OR NO CLOUDS BELOW 12,000 FEET WITH NO
      SIGNIFICANT WEATHER AND/OR OBSTRUCTIONS TO VISIBILITY.
      SKY/WX - SKY CONDITION AND SIGNIFICANT WEATHER.
      TMP - AIR TEMPERATURE.    DP   - DEWPOINT TEMPERATURE.
      RH  - RELATIVE HUMIDITY.  PRES - PRESSURE.
      HX  - HEAT INDEX.         WCI  - WIND CHILL INDEX.

*  THESE STATIONS ARE NOT NWS OR FAA STATIONS AND ARE NOT UNDER
   NWS QUALITY CONTROL.

LAZ040-048-061>063-065-066-069-031500-
SOUTHEAST LOUISIANA

CITY           SKY/WX    TMP DP  RH WIND       PRES   REMARKS
N.O. AUDUBON     N/A     85  78  80 MISG        N/A  HX  97
N.O. INTL ARPT CLOUDY    83  74  74 E6        29.99S
N.O. LAKEFRONT PTSUNNY   82  76  81 NE8       30.00S
N.O. DOWNTOWN* PTSUNNY   82  75  78 SE6       30.00S
RESERVE*       FAIR      81  77  88 NE5       30.00S
SLIDELL        PTSUNNY   82  76  81 NE5       30.00S
BATON ROUGE    MOSUNNY   79  72  79 E6        30.01R
BOOTHVILLE     CLOUDY    83  78  85 CALM      30.00S
BELLE CHASSE   CLOUDY    83  77  82 E3        29.99S
BOGALUSA*      NOT AVBL
GALLIANO*      PTSUNNY   73  72  98 MISG      30.00R
NEW ROADS*     FAIR      79  72  79 E6        30.01S
GONZALES*      FAIR      77  75  95 CALM      29.99S
HAMMOND*       PTSUNNY   79  70  73 CALM      30.02S
HOUMA*         PTSUNNY   79  77  94 NE3       29.99S
PORT FOURCHON* SUNNY     79  75  89 S9G15     30.00R

$$

LAZ041-044-053-054-031500-
SOUTHWEST LOUISIANA

CITY           SKY/WX    TMP DP  RH WIND       PRES   REMARKS
LAKE CHARLES   LGT RAIN  75  73  93 S6        29.99R
LAFAYETTE      MOSUNNY   79  75  87 E3        29.99S
PATTERSON      MOSUNNY   79  75  89 NE6       30.00S
SALT POINT       N/A     80  78  94 CALM      29.96S
NEW IBERIA     MOSUNNY   81  76  84 E5        30.00S
CHENAULT AIRPK CLOUDY    77  75  94 E6        29.99S FOG

$$

LAZ027-028-031500-
CENTRAL LOUISIANA

CITY           SKY/WX    TMP DP  RH WIND       PRES   REMARKS
FORT POLK      PTSUNNY   77  74  90 E6        29.99S
ALEXANDRIA INT SUNNY     78  73  84 E3        29.99S
ALEXANDRIA     FOG       75  71  87 CALM      30.02R VSB 1

$$

LAZ001-002-031500-
NORTHWEST LOUISIANA

CITY           SKY/WX    TMP DP  RH WIND       PRES   REMARKS
SHREVEPORT     SUNNY     78  70  76 CALM      30.01S
BARKSDALE AFB  SUNNY     78  71  79 CALM      30.01S
DTN SHREVEPORT SUNNY     77  69  76 CALM      30.01S

$$

LAZ014-016-031500-
NORTHEAST LOUISIANA

CITY           SKY/WX    TMP DP  RH WIND       PRES   REMARKS
MONROE         SUNNY     79  71  76 CALM      30.02S
TALLULAH       SUNNY     80  73  79 CALM      30.01F

$$



USA.gov is the U.S. government's official web portal to all federal, state and local government web resources and services.